CST,Max TemperatureF,Mean TemperatureF,Min TemperatureF,Max Dew PointF,MeanDew PointF,Min DewpointF,Max Humidity, Mean Humidity, Min Humidity, Max Sea Level PressureIn, Mean Sea Level PressureIn, Min Sea Level PressureIn, Max VisibilityMiles, Mean VisibilityMiles, Min VisibilityMiles, Max Wind SpeedMPH, Mean Wind SpeedMPH, Max Gust SpeedMPH,PrecipitationIn, CloudCover, Events, WindDirDegrees
2012-11-1,51,40,30,30,23,13,70,49,27,29.94,29.88,29.83,10,10,10,12,7,18,0.00,4,,318
2012-11-2,44,38,32,31,28,25,79,69,58,30.19,30.10,29.95,10,10,10,13,9,18,0.00,3,,5
2012-11-3,44,39,33,34,31,26,85,73,66,30.26,30.23,30.19,10,10,10,12,6,,0.00,6,,2
2012-11-4,45,36,28,31,28,25,92,73,58,30.27,30.25,30.22,10,10,8,12,6,,0.00,1,,351
2012-11-5,41,36,30,36,30,26,88,76,60,30.25,30.21,30.15,10,10,7,12,6,,0.00,7,Rain,359
2012-11-6,43,38,34,36,33,27,96,81,56,30.12,29.97,29.90,10,6,3,12,4,,0.08,8,Rain,191
2012-11-7,45,41,37,40,38,36,100,87,76,30.18,30.08,29.94,7,4,2,7,2,,0.00,8,Rain,109
2012-11-8,44,40,37,39,35,32,97,81,65,30.22,30.16,30.11,8,5,2,13,3,18,0.00,5,,211
2012-11-9,48,40,33,45,39,31,100,87,79,30.14,30.08,30.03,5,4,2,9,3,,0.00,6,,134
2012-11-10,64,56,48,54,49,45,90,76,52,30.04,29.93,29.84,10,8,4,22,8,33,0.01,4,Rain,170
2012-11-11,66,52,39,53,48,36,100,79,54,29.90,29.84,29.72,10,8,2,23,16,38,0.28,6,Rain,218
2012-11-12,37,32,26,36,21,15,93,70,58,30.36,30.09,29.90,10,10,10,20,14,29,0.01,6,Rain,265
2012-11-13,37,29,21,23,19,14,81,66,47,30.52,30.48,30.36,10,10,10,7,4,,0.00,0,,233
2012-11-14,43,36,28,30,25,21,79,65,53,30.53,30.47,30.40,10,10,10,13,7,,0.00,2,,184
2012-11-15,46,37,28,34,29,25,85,70,50,30.40,30.37,30.33,10,7,5,10,6,,0.00,0,,204
2012-11-16,48,40,32,43,34,26,100,84,70,30.52,30.47,30.38,10,6,4,13,5,,0.00,3,,18
2012-11-17,48,38,27,39,31,25,100,88,54,30.57,30.51,30.47,6,3,0,10,2,,0.00,1,Fog,181
2012-11-18,50,42,35,40,38,34,100,84,61,30.47,30.42,30.34,8,5,2,12,6,,0.00,0,,170
2012-11-19,50,44,37,45,40,36,93,81,63,30.32,30.22,30.12,8,6,2,12,5,,0.05,4,Rain,170
2012-11-20,51,42,33,46,41,34,100,91,76,30.21,30.14,30.09,6,2,0,6,4,,0.00,5,Fog,298
2012-11-21,57,45,33,44,38,34,100,88,49,30.23,30.17,30.06,10,3,0,13,6,,0.00,1,Fog,228
2012-11-22,63,54,43,50,43,34,89,71,48,30.04,29.86,29.72,10,8,4,23,13,37,0.01,2,Rain,215
2012-11-23,41,34,27,30,20,14,68,60,50,30.22,30.00,29.82,10,10,10,26,17,37,0.00,7,,290
2012-11-24,30,27,24,19,15,12,67,61,54,30.28,30.18,29.97,10,10,10,16,10,24,0.00,5,,276
2012-11-25,39,32,26,22,21,20,81,65,47,30.11,29.94,29.88,10,10,10,10,7,16,0.00,1,,270
2012-11-26,30,24,19,20,15,8,75,64,53,30.41,30.28,30.11,10,10,10,10,6,,0.00,3,,304
2012-11-27,32,23,14,14,10,7,74,55,40,30.43,30.34,30.25,10,10,10,12,7,16,0.00,2,,255
2012-11-28,41,33,25,21,18,15,66,55,41,30.38,30.31,30.25,10,10,10,12,8,,0.00,1,,256
2012-11-29,50,41,32,40,31,22,85,66,44,30.26,30.17,30.12,10,9,7,12,9,,0.00,2,,200
2012-11-30,44,42,39,39,37,35,93,82,76,30.21,30.15,30.09,8,5,3,16,6,21,0.00,7,,77